EA3ANS-1 Weather Reports


time (UTC)temp
F
wind
direction
speed
knots
gust
knots
rain 1hr
in
rain 24hr
in
rain mn
in
humidity
%
barometer
mb
20260508060302 52 297 6.1 5.2 0.00 0.00 0.00 1013.0
20260508055306 52 326 7.0 6.1 0.00 0.00 0.00 1012.9
20260508054307 51 316 2.6 1.7 0.00 0.00 0.00 1013.0
20260508053310 51 342 4.3 5.2 0.00 0.00 0.00 1012.8
20260508052306 51 339 4.3 5.2 0.00 0.00 0.00 1012.6
20260508051307 52 329 3.5 6.1 0.00 0.00 0.00 1012.8
20260508050309 51 304 3.5 5.2 0.00 0.00 0.00 1012.6
20260508045310 52 315 4.3 6.1 0.00 0.00 0.00 1012.7
20260508044312 51 263 0.0 0.0 0.00 0.00 0.00 1012.7
20260508043315 51 263 0.0 0.0 0.00 0.00 0.00 1012.7
20260508042318 51 263 0.0 0.0 0.00 0.00 0.00 1012.6
20260508041315 53 263 0.0 0.0 0.00 0.00 0.00 1012.5
20260508040317 53 319 2.6 2.6 0.00 0.00 0.00 1012.4
20260508035320 53 276 2.6 1.7 0.00 0.00 0.00 1012.4
20260508034323 53 300 4.3 5.2 0.00 0.00 0.00 1012.4
20260508033321 53 316 1.7 5.2 0.00 0.00 0.00 1012.2
20260508032324 54 288 3.5 3.5 0.00 0.00 0.00 1012.4
20260508031327 53 280 4.3 2.6 0.00 0.00 0.00 1012.3
20260508030319 54 302 1.7 2.6 0.00 0.00 0.00 1012.4
20260508025322 54 281 2.6 4.3 0.00 0.00 0.00 1012.4
20260508024324 54 307 3.5 3.5 0.00 0.00 0.00 1012.4
20260508023326 54 315 2.6 3.5 0.00 0.00 0.00 1012.4
20260508022326 55 298 3.5 0.9 0.00 0.00 0.00 1012.5
20260508021329 55 273 2.6 1.7 0.00 0.00 0.00 1012.5
20260508020331 55 305 2.6 3.5 0.00 0.00 0.00 1012.6
20260508015328 55 305 0.9 1.7 0.00 0.00 0.00 1012.7
20260508014331 55 301 3.5 3.5 0.00 0.00 0.00 1012.6
20260508013333 55 330 2.6 4.3 0.00 0.00 0.00 1012.7
20260508012336 56 280 2.6 3.5 0.00 0.00 0.00 1012.9
20260508011338 56 256 0.0 0.0 0.00 0.00 0.00 1013.0
20260508010341 56 134 0.9 1.7 0.00 0.00 0.00 1013.1
20260508005344 57 288 1.7 1.7 0.00 0.00 0.00 1013.1
20260508004341 57 28 0.9 0.0 0.00 0.00 0.00 1013.1
20260508003339 57 294 1.7 1.7 0.00 0.00 0.00 1013.1
20260508002341 57 333 2.6 1.7 0.00 0.00 0.00 1013.0
20260508001344 57 302 3.5 2.6 0.00 0.00 0.00 1013.2
20260508000346 57 316 2.6 2.6 0.00 0.00 0.00 1013.4
20260507235349 57 295 0.9 0.0 0.00 0.00 0.00 1013.4
20260507234352 57 148 0.9 0.0 0.00 0.00 0.00 1013.4
20260507233343 57 267 0.9 0.9 0.00 0.00 0.00 1013.5
20260507232346 58 307 0.9 0.0 0.00 0.00 0.00 1013.5
20260507231347 57 336 0.0 1.7 0.00 0.00 0.00 1013.5
20260507230349 58 305 0.0 0.9 0.00 0.00 0.00 1013.7
20260507225351 57 311 0.9 1.7 0.00 0.00 0.00 1013.7
20260507224347 57 316 0.0 0.9 0.00 0.00 0.00 1013.8
20260507223345 58 17 0.0 0.0 0.00 0.00 0.00 1013.9
20260507222342 57 17 0.0 0.0 0.00 0.00 0.00 1014.0
20260507221337 58 18 0.9 0.0 0.00 0.00 0.00 1013.9
20260507220340 58 354 0.9 0.0 0.00 0.00 0.00 1014.0
20260507215338 58 34 0.0 0.0 0.00 0.00 0.00 1014.1
20260507214340 59 44 0.9 0.9 0.00 0.00 0.00 1014.0
20260507213340 59 39 1.7 1.7 0.00 0.00 0.00 1014.1
20260507212340 59 62 0.0 1.7 0.00 0.00 0.00 1014.0
20260507211334 59 260 0.0 0.0 0.00 0.00 0.00 1013.9
20260507210328 59 260 0.0 0.0 0.00 0.00 0.00 1013.9
20260507205330 59 260 0.9 0.0 0.00 0.00 0.00 1013.9
20260507204333 60 75 0.0 0.0 0.00 0.00 0.00 1013.9
20260507203326 60 63 0.9 1.7 0.00 0.00 0.00 1013.8
20260507202325 59 62 2.6 1.7 0.00 0.00 0.00 1013.7
20260507201328 59 4 0.0 0.0 0.00 0.00 0.00 1013.6
20260507200319 60 32 2.6 2.6 0.00 0.00 0.00 1013.5
20260507195318 60 49 2.6 2.6 0.00 0.00 0.00 1013.5
20260507194317 61 83 0.9 1.7 0.00 0.00 0.00 1013.3
20260507193320 61 41 2.6 0.9 0.00 0.00 0.00 1013.0
20260507192321 62 63 1.7 2.6 0.00 0.00 0.00 1012.8
20260507191321 62 80 2.6 2.6 0.00 0.00 0.00 1012.7
20260507190324 62 127 2.6 2.6 0.00 0.00 0.00 1012.7
20260507185312 62 134 1.7 0.9 0.00 0.00 0.00 1012.5
20260507184315 63 138 3.5 2.6 0.00 0.00 0.00 1012.3
20260507183312 63 107 2.6 4.3 0.00 0.00 0.00 1012.2
20260507182308 64 138 2.6 4.3 0.00 0.00 0.00 1012.1
20260507181311 64 114 6.1 7.0 0.00 0.00 0.00 1011.9
20260507180300 64 145 3.5 3.5 0.00 0.00 0.00 1011.8
20260507175306 64 111 3.5 3.5 0.00 0.00 0.00 1011.7
20260507174255 64 51 5.2 4.3 0.00 0.00 0.00 1011.6
20260507173258 65 121 3.5 4.3 0.00 0.00 0.00 1011.5
20260507172300 65 135 5.2 3.5 0.00 0.00 0.00 1011.5
20260507171300 65 113 5.2 7.0 0.00 0.00 0.00 1011.5
20260507170300 65 128 5.2 6.1 0.00 0.00 0.00 1011.4
20260507165300 66 128 7.0 5.2 0.00 0.00 0.00 1011.4
20260507164302 66 108 5.2 5.2 0.00 0.00 0.00 1011.4
20260507163300 66 141 7.0 3.5 0.00 0.00 0.00 1011.3
20260507162300 66 120 3.5 1.7 0.00 0.00 0.00 1011.2
20260507161300 66 118 7.0 3.5 0.00 0.00 0.00 1011.1
20260507160303 66 148 5.2 7.0 0.00 0.00 0.00 1011.2
20260507155305 67 115 6.1 7.8 0.00 0.00 0.00 1011.3
20260507154300 66 152 6.1 5.2 0.00 0.00 0.00 1011.3
20260507153301 66 139 8.7 5.2 0.00 0.00 0.00 1011.3
20260507152246 68 152 6.1 7.0 0.00 0.00 0.00 1011.3
20260507151247 67 191 6.1 8.7 0.00 0.00 0.00 1011.3
20260507150249 68 218 8.7 8.7 0.00 0.00 0.00 1011.3
20260507145247 67 167 7.0 7.8 0.00 0.00 0.00 1011.2
20260507144247 67 115 9.6 5.2 0.00 0.00 0.00 1011.5
20260507143242 69 150 6.1 7.8 0.00 0.00 0.00 1011.6
20260507142242 68 124 8.7 7.8 0.00 0.00 0.00 1011.7
20260507141239 68 98 7.0 7.8 0.00 0.00 0.00 1011.8
20260507140242 67 179 10.4 6.1 0.00 0.00 0.00 1011.8
20260507135244 69 191 5.2 7.0 0.00 0.00 0.00 1012.1
20260507134243 69 166 7.0 5.2 0.00 0.00 0.00 1012.0
20260507133246 68 129 7.8 6.1 0.00 0.00 0.00 1012.2
20260507132248 69 141 7.8 4.3 0.00 0.00 0.00 1012.2
20260507131245 68 149 6.1 7.0 0.00 0.00 0.00 1012.2
20260507130242 68 136 7.8 3.5 0.00 0.00 0.00 1012.3
20260507125245 69 142 7.0 12.2 0.00 0.00 0.00 1012.5
20260507124247 69 160 7.8 7.8 0.00 0.00 0.00 1012.6
20260507123246 69 136 8.7 7.8 0.00 0.00 0.00 1012.5
20260507122249 69 176 8.7 5.2 0.00 0.00 0.00 1012.6
20260507121247 69 124 9.6 7.0 0.00 0.00 0.00 1012.6
20260507120250 70 153 7.0 9.6 0.00 0.00 0.00 1012.7
20260507115247 71 127 5.2 6.1 0.00 0.00 0.00 1012.7
20260507114250 70 183 5.2 6.1 0.00 0.00 0.00 1012.8
20260507113244 70 136 6.1 4.3 0.00 0.00 0.00 1012.8
20260507112241 69 114 7.0 4.3 0.00 0.00 0.00 1013.1
20260507111241 68 180 7.0 6.1 0.00 0.00 0.00 1013.2
20260507110243 68 203 5.2 8.7 0.00 0.00 0.00 1013.4
20260507105243 67 18 0.0 1.7 0.00 0.00 0.00 1013.4
20260507104240 68 114 6.1 6.1 0.00 0.00 0.00 1013.5
20260507103241 67 195 2.6 4.3 0.00 0.00 0.00 1013.7
20260507102241 68 136 4.3 3.5 0.00 0.00 0.00 1013.5
20260507101242 67 149 5.2 6.1 0.00 0.00 0.00 1013.9
20260507100245 65 135 7.0 4.3 0.00 0.00 0.00 1014.0
20260507095245 65 73 0.9 0.9 0.00 0.00 0.00 1013.9
20260507094248 66 120 5.2 2.6 0.00 0.00 0.00 1014.0
20260507093242 64 45 2.6 1.7 0.00 0.00 0.00 1014.2
20260507092240 65 188 4.3 2.6 0.00 0.00 0.00 1014.1
20260507091240 64 208 4.3 4.3 0.00 0.00 0.00 1014.2
20260507090243 63 82 1.7 0.9 0.00 0.00 0.00 1013.9
20260507085245 62 195 2.6 2.6 0.00 0.00 0.00 1013.9
20260507084248 62 187 1.7 3.5 0.00 0.00 0.00 1014.1
20260507083250 62 156 2.6 4.3 0.00 0.00 0.00 1014.0
20260507082247 63 174 2.6 1.7 0.00 0.00 0.00 1014.1
20260507081243 62 165 0.9 0.0 0.00 0.00 0.00 1014.2
20260507080245 61 150 0.0 0.0 0.00 0.00 0.00 1014.2
20260507075241 60 167 0.0 0.0 0.00 0.00 0.00 1014.3
20260507074241 59 243 1.7 0.9 0.00 0.00 0.00 1014.5
20260507073242 57 322 0.0 0.0 0.00 0.00 0.00 1014.5
20260507072245 57 322 0.0 0.0 0.00 0.00 0.00 1014.5
20260507071242 55 328 2.6 3.5 0.00 0.00 0.00 1014.6
20260507070244 54 8 2.6 0.9 0.00 0.00 0.00 1014.5
20260507065241 54 304 1.7 1.7 0.00 0.00 0.00 1014.4
20260507064244 54 335 0.9 0.9 0.00 0.00 0.00 1014.3
20260507063243 54 111 0.0 0.0 0.00 0.00 0.00 1014.2
20260507062246 53 134 2.6 2.6 0.00 0.00 0.00 1014.0
20260507061248 54 83 0.9 0.0 0.00 0.00 0.00 1013.9